Weather History for Aberdeen / Amory, MS

Change the Weather History Date:

Sunday, January 20, 2013

  Actual Average (KCBM) Record (KCBM)
Temperature  
Mean Temperature 46 °F -  
Max Temperature 64 °F 52 °F 71 °F (1999)
Min Temperature 28 °F 32 °F 16 °F (2008)
Degree Days  
Heating Degree Days 19    
Moisture  
Dew Point 33 °F    
Average Humidity 68    
Maximum Humidity 81    
Minimum Humidity 51    
Precipitation  
Precipitation 0.00 in - - ()
Sea Level Pressure  
Sea Level Pressure 30.21 in    
Wind  
Wind Speed 1 mph (NW)    
Max Wind Speed 7 mph    
Max Gust Speed -    
Visibility 8 miles    
Events      
Averages and records for this station are not official NWS values.
T = Trace of Precipitation, MM = Missing Value Source: NWS Daily Summary

Daily Weather History Graph

Daily Weather History Graph

Search for Another Location

Airport:

Trip Planner

Search our weather history database for the weather conditions in past years. The results will help you decide how hot, cold, wet, or windy it might be!

Date:

Astronomy

Jan. 20, 2013 Rise Set
Actual Time 6:57 AM CST 5:13 PM CST
Civil Twilight 6:30 AM CST 5:40 PM CST
Nautical Twilight 6:00 AM CST 6:10 PM CST
Astronomical Twilight 5:30 AM CST 6:40 PM CST
Moon 12:13 PM CST (1/20) 1:30 AM CST (1/20)
Length of Visible Light 11h 09m
Length of Day
10h 15m
Waxing Gibbous, 66% of the Moon is Illuminated
Jan 20
Waxing Gibbous
Jan 26
Full
Feb 3
Last Quarter
Feb 10
New
Feb 17
First Quarter

Hourly Weather History & Observations

Time (CST) Temp. Windchill Dew Point Humidity Pressure Visibility Wind Dir Wind Speed Gust Speed Precip Events Conditions
12:15 AM 32.0 °F - 26.6 °F 80% 30.24 in 7.0 mi Calm Calm - N/A   Clear
12:35 AM 33.8 °F - 26.6 °F 75% 30.25 in 8.0 mi North - - N/A   Clear
1:15 AM 32.0 °F - 26.6 °F 80% 30.25 in 8.0 mi North - - N/A   Clear
1:35 AM 32.0 °F - 26.6 °F 80% 30.26 in 5.0 mi North - - N/A   Haze
1:55 AM 32.0 °F - 24.8 °F 75% 30.26 in 4.0 mi Calm Calm - N/A   Haze
2:15 AM 32.0 °F - 26.6 °F 80% 30.26 in 9.0 mi Calm Calm - N/A   Clear
2:35 AM 32.0 °F - 26.6 °F 80% 30.26 in 5.0 mi Calm Calm - N/A   Haze
2:55 AM 32.0 °F - 24.8 °F 75% 30.26 in 5.0 mi North - - N/A   Haze
3:15 AM 32.0 °F - 23.0 °F 69% 30.26 in 5.0 mi Calm Calm - N/A   Haze
3:35 AM 30.2 °F - 23.0 °F 75% 30.26 in 3.0 mi Calm Calm - N/A   Haze
3:55 AM 30.2 °F - 23.0 °F 75% 30.25 in 7.0 mi Calm Calm - N/A   Clear
4:15 AM 30.2 °F - 23.0 °F 75% 30.25 in 5.0 mi Calm Calm - N/A   Haze
4:35 AM 30.2 °F - 23.0 °F 75% 30.25 in 9.0 mi Calm Calm - N/A   Clear
4:55 AM 30.2 °F - 23.0 °F 75% 30.25 in 5.0 mi North - - N/A   Haze
5:15 AM 30.2 °F - 23.0 °F 75% 30.25 in 10.0 mi North - - N/A   Clear
5:35 AM 30.2 °F - 23.0 °F 75% 30.25 in 5.0 mi North - - N/A   Haze
6:15 AM 30.2 °F - 23.0 °F 75% 30.25 in 6.0 mi North - - N/A   Haze
6:35 AM 30.2 °F - 23.0 °F 75% 30.25 in 3.0 mi North - - N/A   Haze
6:55 AM 30.2 °F - 23.0 °F 75% 30.25 in 5.0 mi North - - N/A   Haze
7:15 AM 28.4 °F - 21.2 °F 74% 30.25 in 5.0 mi North - - N/A   Haze
7:35 AM 30.2 °F - 23.0 °F 75% 30.25 in 7.0 mi Calm Calm - N/A   Clear
7:55 AM 32.0 °F - 26.6 °F 80% 30.26 in 8.0 mi Calm Calm - N/A   Clear
8:15 AM 35.6 °F - 28.4 °F 75% 30.26 in 6.0 mi Calm Calm - N/A   Haze
8:35 AM 37.4 °F - 32.0 °F 81% 30.26 in 8.0 mi Calm Calm - N/A   Clear
8:55 AM 41.0 °F 39.0 °F 32.0 °F 70% 30.27 in 7.0 mi SSW 3.5 mph - N/A   Clear
9:15 AM 44.6 °F - 33.8 °F 66% 30.27 in 9.0 mi Calm Calm - N/A   Clear
9:35 AM 46.4 °F - 35.6 °F 66% 30.27 in 8.0 mi Calm Calm - N/A   Clear
9:55 AM 50.0 °F - 35.6 °F 58% 30.28 in 9.0 mi NNW 3.5 mph - N/A   Clear
10:15 AM 51.8 °F - 37.4 °F 58% 30.27 in 9.0 mi NNE 4.6 mph - N/A   Clear
10:35 AM 53.6 °F - 37.4 °F 54% 30.27 in 10.0 mi North 4.6 mph - N/A   Clear
10:55 AM 55.4 °F - 39.2 °F 54% 30.26 in 9.0 mi NNE 6.9 mph - N/A   Clear
11:15 AM 57.2 °F - 39.2 °F 51% 30.26 in 9.0 mi NNE 5.8 mph - N/A   Clear
11:35 AM 59.0 °F - 42.8 °F 55% 30.25 in 9.0 mi NNE 6.9 mph - N/A   Clear
11:55 AM 60.8 °F - 42.8 °F 52% 30.23 in 9.0 mi North 5.8 mph - N/A   Clear
12:15 PM 60.8 °F - 44.6 °F 55% 30.22 in 10.0 mi NE 3.5 mph - N/A   Clear
12:35 PM 62.6 °F - 44.6 °F 52% 30.21 in 9.0 mi Calm Calm - N/A   Clear
12:55 PM 62.6 °F - 46.4 °F 55% 30.20 in 9.0 mi WSW 3.5 mph - N/A   Clear
1:15 PM 64.4 °F - 46.4 °F 52% 30.19 in 9.0 mi SW 3.5 mph - N/A   Clear
1:35 PM 62.6 °F - 46.4 °F 55% 30.19 in 9.0 mi Calm Calm - N/A   Clear
1:55 PM 64.4 °F - 48.2 °F 56% 30.18 in 9.0 mi Calm Calm - N/A   Clear
2:15 PM 64.4 °F - 48.2 °F 56% 30.18 in 10.0 mi WSW 3.5 mph - N/A   Clear
2:35 PM 64.4 °F - 48.2 °F 56% 30.17 in 9.0 mi Calm Calm - N/A   Clear
2:55 PM 64.4 °F - 48.2 °F 56% 30.17 in 9.0 mi WSW 4.6 mph - N/A   Clear
3:15 PM 64.4 °F - 48.2 °F 56% 30.16 in 9.0 mi Calm Calm - N/A   Clear
3:35 PM 64.4 °F - 48.2 °F 56% 30.16 in 10.0 mi SW 3.5 mph - N/A   Clear
3:55 PM 64.4 °F - 46.4 °F 52% 30.16 in 9.0 mi Calm Calm - N/A   Clear
4:15 PM 64.4 °F - 46.4 °F 52% 30.16 in 9.0 mi NW 3.5 mph - N/A   Clear
4:35 PM 62.6 °F - 46.4 °F 55% 30.16 in 10.0 mi Calm Calm - N/A   Clear
4:55 PM 60.8 °F - 44.6 °F 55% 30.16 in 10.0 mi Calm Calm - N/A   Clear
5:15 PM 57.2 °F - 39.2 °F 51% 30.16 in 9.0 mi Calm Calm - N/A   Clear
5:35 PM 51.8 °F - 35.6 °F 54% 30.16 in 9.0 mi Calm Calm - N/A   Clear
5:55 PM 48.2 °F - 33.8 °F 58% 30.16 in 10.0 mi Calm Calm - N/A   Clear
6:15 PM 46.4 °F - 33.8 °F 62% 30.16 in 10.0 mi Calm Calm - N/A   Clear
6:35 PM 44.6 °F - 33.8 °F 66% 30.16 in 9.0 mi Calm Calm - N/A   Clear
6:55 PM 42.8 °F - 32.0 °F 66% 30.16 in 10.0 mi North - - N/A   Clear
7:15 PM 42.8 °F - 32.0 °F 66% 30.16 in 10.0 mi North - - N/A   Clear
7:35 PM 41.0 °F - 32.0 °F 70% 30.16 in 9.0 mi Calm Calm - N/A   Clear
7:55 PM 39.2 °F - 32.0 °F 75% 30.16 in 9.0 mi Calm Calm - N/A   Clear
8:15 PM 39.2 °F - 32.0 °F 75% 30.17 in 9.0 mi Calm Calm - N/A   Clear
8:35 PM 37.4 °F - 32.0 °F 81% 30.17 in 9.0 mi North - - N/A   Clear
8:55 PM 37.4 °F - 30.2 °F 75% 30.17 in 9.0 mi North - - N/A   Clear
9:15 PM 37.4 °F - 30.2 °F 75% 30.17 in 8.0 mi Calm Calm - N/A   Clear
9:55 PM 35.6 °F - 30.2 °F 81% 30.17 in 6.0 mi Calm Calm - N/A   Haze
10:15 PM 33.8 °F - 28.4 °F 81% 30.17 in 5.0 mi Calm Calm - N/A   Haze
10:35 PM 33.8 °F - 28.4 °F 81% 30.17 in 5.0 mi Calm Calm - N/A   Haze
10:55 PM 33.8 °F - 28.4 °F 81% 30.17 in 4.0 mi North - - N/A   Haze
11:15 PM 33.8 °F - 28.4 °F 81% 30.16 in 1.0 mi North - - N/A   Haze
11:35 PM 33.8 °F - 28.4 °F 81% 30.16 in 3.0 mi North - - N/A   Haze
11:55 PM 33.8 °F - 28.4 °F 81% 30.16 in 4.0 mi Calm Calm - N/A   Haze